Location: Mohawk View
(42.7837°N, 73.7885°W)
Time: 00:13:51
(UTC+00:00)

Cosmos 1980 - Pass Details

Date: 17 June 2021
Orbit: 839 x 847 km, 71.0° (Epoch: 02 August)

Event Time Altitude Azimuth Distance (km) Brightness Sun altitude
Exits shadow 03:55:55 49° 147° (SSE) 1,084 3.8 -22.4°
Maximum altitude 03:56:55 56° 109° (ESE) 1,002 3.8 -22.4°
Drops below altitude 10° 04:02:28 10° 33° (NNE) 2,478 6.7 -22.7°
Sets 04:04:58 0° 29° (NNE) 3,418 7.6 -22.8°
